Location: Baturyn
(53.6332°N, 113.5041°W)
Time: 06:59:46
(UTC+00:00)

N. Korean satellite - Visible Passes

Search period start: 30 November 2021 00:00
Search period end: 10 December 2021 00:00
Orbit: 447 x 495 km, 97.3° (Epoch: 29 November)

Date Brightness Start Highest point End Pass type
(mag) Time Alt. Az. Time Alt. Az. Time Alt. Az.
30 Nov 7.6 00:08:54 10° S 00:12:23 51° W 00:15:51 10° NNW visible
30 Nov 6.5 13:00:31 10° NNE 13:03:58 78° ESE 13:07:20 10° S visible
30 Nov 8.3 14:35:12 10° NNW 14:36:39 12° WNW 14:38:06 10° W visible
01 Dec 10.0 01:16:20 10° WSW 01:17:33 11° W 01:18:46 10° WNW visible
01 Dec 8.0 12:32:12 10° NNE 12:35:23 36° E 12:38:33 10° SSE visible
01 Dec 7.6 14:05:46 10° NNW 14:08:26 21° WNW 14:11:04 10° WSW visible
02 Dec 9.4 00:46:01 10° SW 00:48:47 21° W 00:51:34 10° NW visible
02 Dec 9.2 12:04:14 10° NE 12:06:43 18° E 12:09:09 10° SE visible
02 Dec 6.8 13:36:52 10° N 13:40:06 40° WNW 13:43:17 10° SW visible
03 Dec 8.0 00:16:46 10° S 00:20:08 41° W 00:23:30 10° NNW visible
03 Dec 6.2 13:08:14 10° NNE 13:11:39 85° WNW 13:15:02 10° SSW visible
03 Dec 8.5 14:43:35 10° NW 14:44:15 10° NW 14:44:56 10° WNW visible
04 Dec 7.5 12:39:48 10° NNE 12:43:05 44° E 12:46:20 10° S visible
04 Dec 7.8 14:13:37 10° NNW 14:16:02 18° WNW 14:18:26 10° WSW visible
05 Dec 9.6 00:54:03 10° SW 00:56:31 18° W 00:58:59 10° NW visible
05 Dec 8.9 12:11:41 10° NE 12:14:25 22° E 12:17:07 10° SSE visible
05 Dec 7.0 13:44:35 10° N 13:47:42 33° WNW 13:50:47 10° SW visible
06 Dec 8.4 00:24:34 10° SSW 00:27:48 34° W 00:31:01 10° NNW visible
06 Dec 9.8 11:44:24 10° ENE 11:45:36 11° E 11:46:48 10° ESE visible
06 Dec 6.2 13:15:51 10° N 13:19:15 69° WNW 13:22:37 10° SSW visible
06 Dec 6.8 23:55:42 10° S 23:59:12 72° WSW 00:02:39 10° NNW visible
07 Dec 7.1 12:47:21 10° NNE 12:50:41 54° E 12:54:00 10° S visible
07 Dec 8.0 14:21:25 10° NNW 14:23:32 16° WNW 14:25:39 10° W visible
08 Dec 9.7 01:02:05 10° SW 01:04:10 15° W 01:06:15 10° NW visible
08 Dec 8.6 12:19:05 10° NE 12:22:00 26° E 12:24:55 10° SSE visible
08 Dec 7.3 13:52:14 10° N 13:55:12 28° WNW 13:58:09 10° SW visible
09 Dec 8.8 00:32:20 10° SSW 00:35:23 28° W 00:38:26 10° NW visible
09 Dec 9.6 11:51:24 10° ENE 11:53:12 14° E 11:55:01 10° ESE visible
09 Dec 6.4 13:23:24 10° N 13:26:45 56° WNW 13:30:05 10° SSW visible
